User: anonymous   Login
Location: Standeford and Andreas Observatories
(44.1397°N, 93.9969°W)
Time: 04:46:47
(UTC-05:00)
Language:

Cosmos 1500 Rocket - Orbit

View from above orbital plane
View from above orbital plane
View from above satellite
View from above satellite

Ground track
Ground track

The orbit data is extracted from the following two-line orbital elements,

1 14373U 83099B   15212.45033043  .00000222  00000-0  24011-4 0  9998
2 14373 082.5420 166.2413 0019690 337.1342 162.4331 14.83482113719059
Epoch (UTC): 31 July 2015 10:48:28
Eccentricity: 0.0019690
inclination: 82.5420°
perigee height: 604 km
apogee height: 632 km
right ascension of ascending node: 166.2413°
argument of perigee: 337.1342°
revolutions per day: 14.83482113
mean anomaly at epoch: 162.4331°
orbit number at epoch: 71905

The dashed part of the orbit path shows where the satellite is in the earth's shadow,  

DLR